Location: Boiro
(42.6475°N, 8.8834°W)
Time: 06:15:34
(UTC+01:00)

Transit 4A - Pass Details

Date: 06 December 2021
Orbit: 864 x 980 km, 66.8° (Epoch: 17 January)

Event Time Altitude Azimuth Distance (km) Brightness Sun altitude
Rises 19:35:41 0° 190° (S) 3,441 11.2 -16.6°
Reaches altitude 10° 19:38:13 10° 184° (S) 2,517 10.4 -17.1°
Maximum altitude 19:43:44 46° 113° (ESE) 1,172 8.1 -18.1°
Enters shadow 19:46:12 30° 60° (ENE) 1,551 8.5 -18.5°
